User: anonymous   Login
Location: Fishcreek Rd Observing Site
(41.1865°N, 81.4271°W)
Time: 20:55:20
(UTC-04:00)
Language:

Iridium 75 - Orbit

View from above orbital plane
View from above orbital plane
View from above satellite
View from above satellite

Ground track
Ground track

The orbit data is extracted from the following two-line orbital elements,

1 25346U 98032E   15186.46795925  .00000085  00000-0  23137-4 0  9993
2 25346 086.3983 162.0308 0002327 087.7486 026.5441 14.34215234897514
Epoch (UTC): 05 July 2015 11:13:51
Eccentricity: 0.0002327
inclination: 86.3983°
perigee height: 776 km
apogee height: 779 km
right ascension of ascending node: 162.0308°
argument of perigee: 87.7486°
revolutions per day: 14.34215234
mean anomaly at epoch: 26.5441°
orbit number at epoch: 89751

The dashed part of the orbit path shows where the satellite is in the earth's shadow,  

DLR